{"data":{"norad_id":56496,"epoch":"2026-09-20T11:39:54.637056Z","epoch_age_seconds":113185,"freshness":"FRESH","line1":"1 56496U 23064BA  26263.48604904 -.00001152  00000+0 -88749-4 0  9999","line2":"2 56496  69.9996 333.2067 0003340 263.7253  96.3526 14.98325135185413","mean_motion":14.98325135,"eccentricity":0.000334,"inclination_deg":69.9996,"raan_deg":333.2067,"arg_perigee_deg":263.7253,"mean_anomaly_deg":96.3526,"bstar":-8.8749e-5,"rev_number":18541,"period_min":96.107311181161,"perigee_km":569.74956614582,"apogee_km":574.3923050468,"semimajor_km":6950.2079355963,"source":"CELESTRAK","updated_at":"2026-09-21T09:00:33.468044Z"}}